Hourly Weather Abrantes

Today, 29 July, Thursday

Time Temperature Precipitation Wind Pressure Humidity
00:00 +17°C° 0 mm 2 mps 752 mmHg 83%
01:00 +16°C° 0 mm 2 mps 752 mmHg 86%
02:00 +16°C° 0 mm 2 mps 751 mmHg 89%
03:00 +16°C° 0 mm 2 mps 752 mmHg 91%
04:00 +16°C° 0 mm 1 mps 752 mmHg 92%
05:00 +15°C° 0 mm 1 mps 752 mmHg 94%
06:00 +18°C° 0 mm 2 mps 752 mmHg 81%
07:00 +21°C° 0 mm 2 mps 753 mmHg 68%
08:00 +25°C° 0 mm 2 mps 753 mmHg 55%
09:00 +27°C° 0 mm 3 mps 753 mmHg 47%
10:00 +30°C° 0 mm 3 mps 753 mmHg 40%
11:00 +33°C° 0 mm 3 mps 753 mmHg 32%
12:00 +33°C° 0 mm 4 mps 752 mmHg 31%
13:00 +34°C° 0 mm 5 mps 752 mmHg 29%
14:00 +34°C° 0 mm 6 mps 752 mmHg 28%
15:00 +32°C° 0 mm 6 mps 752 mmHg 31%
16:00 +29°C° 0 mm 6 mps 752 mmHg 33%
17:00 +27°C° 0 mm 6 mps 752 mmHg 35%
18:00 +25°C° 0 mm 5 mps 753 mmHg 48%
19:00 +21°C° 0 mm 5 mps 753 mmHg 61%
20:00 +18°C° 0 mm 4 mps 753 mmHg 74%
21:00 +17°C° 0 mm 4 mps 753 mmHg 78%
22:00 +17°C° 0 mm 4 mps 753 mmHg 81%
23:00 +16°C° 0 mm 3 mps 753 mmHg 85%

Tomorrow, 30 July, Friday

Time Temperature Precipitation Wind Pressure Humidity
00:00 +16°C° 0 mm 3 mps 753 mmHg 87%
01:00 +16°C° 0 mm 3 mps 753 mmHg 89%
02:00 +16°C° 0 mm 3 mps 753 mmHg 90%
03:00 +16°C° 0 mm 3 mps 754 mmHg 90%
04:00 +17°C° 0 mm 3 mps 754 mmHg 90%
05:00 +17°C° 0 mm 3 mps 754 mmHg 89%
06:00 +19°C° 0 mm 4 mps 754 mmHg 79%
07:00 +22°C° 0 mm 4 mps 754 mmHg 68%
08:00 +25°C° 0 mm 5 mps 754 mmHg 57%
09:00 +27°C° 0 mm 5 mps 754 mmHg 49%
10:00 +29°C° 0 mm 5 mps 754 mmHg 40%
11:00 +32°C° 0 mm 5 mps 754 mmHg 32%
12:00 +32°C° 0 mm 6 mps 754 mmHg 31%
13:00 +33°C° 0 mm 6 mps 753 mmHg 30%
14:00 +33°C° 0 mm 6 mps 753 mmHg 29%
15:00 +30°C° 0 mm 6 mps 753 mmHg 33%
16:00 +28°C° 0 mm 6 mps 753 mmHg 38%
17:00 +27°C° 0 mm 6 mps 754 mmHg 42%
18:00 +23°C° 0 mm 6 mps 754 mmHg 54%
19:00 +21°C° 0 mm 5 mps 754 mmHg 67%
20:00 +19°C° 0 mm 4 mps 754 mmHg 79%
21:00 +18°C° 0 mm 4 mps 755 mmHg 82%
22:00 +16°C° 0 mm 5 mps 755 mmHg 84%
23:00 +16°C° 0 mm 5 mps 755 mmHg 87%

Day after tomorrow, 31 July, Saturday

Time Temperature Precipitation Wind Pressure Humidity
00:00 +16°C° 0 mm 5 mps 755 mmHg 86%
01:00 +15°C° 0 mm 5 mps 755 mmHg 85%
02:00 +15°C° 0 mm 5 mps 754 mmHg 84%
03:00 +15°C° 0 mm 5 mps 755 mmHg 84%
04:00 +15°C° 0 mm 5 mps 755 mmHg 83%
05:00 +15°C° 0 mm 5 mps 755 mmHg 83%
06:00 +17°C° 0 mm 5 mps 755 mmHg 70%
07:00 +20°C° 0 mm 6 mps 755 mmHg 57%
08:00 +22°C° 0 mm 6 mps 755 mmHg 44%
09:00 +24°C° 0 mm 6 mps 755 mmHg 38%
10:00 +27°C° 0 mm 6 mps 755 mmHg 32%
11:00 +28°C° 0 mm 6 mps 755 mmHg 25%
12:00 +28°C° 0 mm 7 mps 755 mmHg 26%
13:00 +28°C° 0 mm 7 mps 755 mmHg 27%
14:00 +28°C° 0 mm 7 mps 754 mmHg 28%
15:00 +26°C° 0 mm 7 mps 755 mmHg 34%
16:00 +24°C° 0 mm 7 mps 755 mmHg 41%
17:00 +22°C° 0 mm 7 mps 755 mmHg 47%
18:00 +21°C° 0 mm 6 mps 755 mmHg 55%
19:00 +19°C° 0 mm 6 mps 755 mmHg 62%
20:00 +17°C° 0 mm 6 mps 756 mmHg 69%
21:00 +16°C° 0 mm 5 mps 756 mmHg 74%
22:00 +15°C° 0 mm 5 mps 756 mmHg 79%
23:00 +15°C° 0 mm 4 mps 755 mmHg 85%

1 August, Sunday

Time Temperature Precipitation Wind Pressure Humidity
00:00 +14°C° 0 mm 4 mps 755 mmHg 87%
01:00 +14°C° 0 mm 4 mps 755 mmHg 88%
02:00 +13°C° 0 mm 3 mps 755 mmHg 90%
03:00 +13°C° 0 mm 3 mps 755 mmHg 91%
04:00 +13°C° 0 mm 3 mps 755 mmHg 91%
05:00 +14°C° 0 mm 2 mps 755 mmHg 92%
06:00 +17°C° 0 mm 3 mps 755 mmHg 78%
07:00 +20°C° 0 mm 3 mps 755 mmHg 64%
08:00 +23°C° 0 mm 4 mps 755 mmHg 49%
09:00 +26°C° 0 mm 4 mps 755 mmHg 45%
10:00 +28°C° 0 mm 4 mps 754 mmHg 40%
11:00 +30°C° 0 mm 5 mps 754 mmHg 35%
12:00 +32°C° 0 mm 5 mps 754 mmHg 34%
13:00 +32°C° 0 mm 5 mps 754 mmHg 34%
14:00 +33°C° 0 mm 6 mps 753 mmHg 34%
15:00 +30°C° 0 mm 6 mps 753 mmHg 40%
16:00 +29°C° 0 mm 5 mps 753 mmHg 45%
17:00 +27°C° 0 mm 5 mps 753 mmHg 51%
18:00 +25°C° 0 mm 4 mps 753 mmHg 63%
19:00 +22°C° 0 mm 3 mps 754 mmHg 76%
20:00 +20°C° 0 mm 2 mps 754 mmHg 88%
21:00 +19°C° 0 mm 2 mps 754 mmHg 91%
22:00 +19°C° 0 mm 2 mps 754 mmHg 94%
23:00 +18°C° 0 mm 2 mps 754 mmHg 97%

2 August, Monday

Time Temperature Precipitation Wind Pressure Humidity
00:00 +19°C° 0 mm 2 mps 753 mmHg 95%
01:00 +19°C° 0 mm 2 mps 753 mmHg 93%
02:00 +19°C° 0 mm 2 mps 753 mmHg 92%
03:00 +19°C° 0 mm 2 mps 753 mmHg 90%
04:00 +19°C° 0 mm 2 mps 753 mmHg 89%
05:00 +19°C° 0 mm 2 mps 753 mmHg 87%
06:00 +21°C° 0 mm 2 mps 753 mmHg 79%
07:00 +24°C° 0 mm 2 mps 753 mmHg 70%
08:00 +25°C° 0 mm 3 mps 753 mmHg 62%
09:00 +27°C° 0 mm 3 mps 753 mmHg 53%
10:00 +30°C° 0 mm 3 mps 753 mmHg 45%
11:00 +33°C° 0 mm 4 mps 753 mmHg 37%
12:00 +33°C° 0 mm 5 mps 752 mmHg 35%
13:00 +33°C° 0 mm 5 mps 752 mmHg 33%
14:00 +34°C° 0 mm 6 mps 752 mmHg 31%
15:00 +32°C° 0 mm 6 mps 752 mmHg 35%
16:00 +29°C° 0 mm 6 mps 752 mmHg 39%
17:00 +27°C° 0 mm 6 mps 752 mmHg 43%
18:00 +24°C° 0 mm 6 mps 752 mmHg 52%
19:00 +21°C° 0 mm 5 mps 753 mmHg 61%
20:00 +19°C° 0 mm 4 mps 753 mmHg 71%
21:00 +18°C° 0 mm 4 mps 753 mmHg 75%
22:00 +17°C° 0 mm 3 mps 753 mmHg 80%
23:00 +17°C° 0 mm 3 mps 753 mmHg 85%

3 August, Tuesday

Time Temperature Precipitation Wind Pressure Humidity
00:00 +16°C° 0 mm 3 mps 753 mmHg 87%
01:00 +16°C° 0 mm 2 mps 753 mmHg 89%
02:00 +16°C° 0 mm 2 mps 753 mmHg 91%
03:00 +16°C° 0 mm 2 mps 753 mmHg 91%
04:00 +16°C° 0 mm 2 mps 754 mmHg 91%
05:00 +16°C° 0 mm 2 mps 754 mmHg 91%
06:00 +19°C° 0 mm 2 mps 754 mmHg 76%
07:00 +22°C° 0 mm 3 mps 754 mmHg 61%
08:00 +26°C° 0 mm 3 mps 754 mmHg 46%
09:00 +29°C° 0 mm 4 mps 754 mmHg 38%
10:00 +32°C° 0 mm 4 mps 754 mmHg 30%
11:00 +34°C° 0 mm 5 mps 754 mmHg 22%
12:00 +35°C° 0 mm 5 mps 753 mmHg 23%
13:00 +35°C° 0 mm 6 mps 753 mmHg 24%
14:00 +35°C° 0 mm 7 mps 753 mmHg 25%
15:00 +33°C° 0 mm 7 mps 753 mmHg 31%
16:00 +30°C° 0 mm 7 mps 753 mmHg 36%
17:00 +28°C° 0 mm 7 mps 754 mmHg 41%
18:00 +26°C° 0 mm 6 mps 754 mmHg 52%
19:00 +22°C° 0 mm 6 mps 754 mmHg 62%
20:00 +20°C° 0 mm 5 mps 755 mmHg 73%
21:00 +20°C° 0 mm 5 mps 755 mmHg 76%
22:00 +19°C° 0 mm 5 mps 755 mmHg 80%
23:00 +18°C° 0 mm 4 mps 755 mmHg 83%
Show more

We Need Your Consent

Meteoprog and our Service Providers may store and access personal data such as cookies, device identifiers or other similar technologies on your device and process such data to personalise content and ads, as well as provide social media features and to analyse the traffic.

  • Store and/or access information on your device

    Cookies, device identifiers or other information can be stored or accessed on your device for the purposes indicated above.

  • Personalised ads and content, ad and content measurement, audience insights, and products development

    Ads and content can be personalised based on a profile. More data can be added to better personalise ads and content. Ad and content performance can be measured. Insights about the audience who saw the ads and content can be derived. Such data can be used to develop or improve user’s experience, systems and software.

By clicking ‘I Agree’ you will allow the use of indicated cookies, device identifiers, web beacons or other similar technologies. Your settings can be changed in the browser on your device.

For certain purposes, legitimate interests may be relied on, rather than consent. You can read more about this in our Privacy and Cookie Policy.